Weather in Sunyani

Ghana     7°20′41″N   2°19′13″W
temp.,
°C
wind,
m/s
gust,
m/s
humid.,
%
clouds,
%
prec.,
mm/h
press.,
hPa
HPBL,
m
15 august, mon
mon1500:00+21ssw31099100 5.1 1012565
03:00+21s2899100 4.3 1011603
06:00+21ssw15100100 11.9 1012311
09:00+22ssw2699100 7.6 1013371
12:00+22sw299797 9.5 1012679
15:00+22sw399581 0.3 1010646
18:00+22ssw299760 0.4 1010567
21:00+21ssw3119891 0.0 1012656
16 august, tue
tue1600:00+21ssw31096100 0.2 1013697
03:00+21sw21096100 0.1 1012696
06:00+21sw2109687 0.2 1012712
09:00+22ssw2993100 0.1 1014707
12:00+25sw3777100 0.6 1014922
15:00+26wsw3675100 0.9 10111092
18:00+23sw268852 1.8 1011345
21:00+21sw1898100 0.4 1015287
17 august, wed
wed1700:00+20ssw289936 0.4 1014337
03:00+19ssw1899100 0.0 1013384
06:00+19ssw169991 0.0 1014294
09:00+22ssw258353 0.0 1016672
12:00+25sw246899 0.1 10141083
15:00+26sw2370100 0.2 1012893
18:00+23s1484100 0.3 1013134
21:00+22s148532 0.0 1014114
18 august, thu
thu1800:00+20sw12965 0.0 101545
03:00+19sw169929 0.0 1013181
06:00+18ssw149936 0.0 1015148
09:00+24sw247291 0.0 1016637
12:00+29wsw2256100 0.1 10141472
15:00+29wsw125969 0.3 10111199
18:00+24ssw138696 0.8 101266
21:00+22ssw1188100 0.0 101312
19 august, fri
fri1900:00+21ssw159390 0.0 1013136
03:00+20s2796100 0.0 1012259
06:00+20ssw2795100 0.0 1014338
09:00+22ssw2585100 0.0 1015530
12:00+27wsw236580 0.0 10141069
15:00+26sw2479100 1.2 1011729
18:00+22s2796100 4.3 1012286
21:00+21ssw2898100 0.0 1013376